Weather History for Oxford, CT

Change the Weather History Date:

Wednesday, February 13, 2013

  Actual Average Record
Temperature  
Mean Temperature 32 °F -  
Max Temperature 41 °F 34 °F 51 °F (2008)
Min Temperature 24 °F 20 °F 8 °F (2003)
Degree Days  
Heating Degree Days 32    
Moisture  
Dew Point 20 °F    
Average Humidity 61    
Maximum Humidity 86    
Minimum Humidity 45    
Precipitation  
Precipitation 0.00 in - - ()
Sea Level Pressure  
Sea Level Pressure 29.82 in    
Wind  
Wind Speed 3 mph (NNW)    
Max Wind Speed 9 mph    
Max Gust Speed -    
Visibility 9 miles    
Events      
Averages and records for this station are not official NWS values.
T = Trace of Precipitation, MM = Missing Value Source: NWS Daily Summary

Daily Weather History Graph

Daily Weather History Graph

Search for Another Location

Airport:

Trip Planner

Search our weather history database for the weather conditions in past years. The results will help you decide how hot, cold, wet, or windy it might be!

Date:

Astronomy

Feb. 13, 2013 Rise Set
Actual Time 6:49 AM EST 5:24 PM EST
Civil Twilight 6:21 AM EST 5:52 PM EST
Nautical Twilight 5:49 AM EST 6:25 PM EST
Astronomical Twilight 5:16 AM EST 6:57 PM EST
Moon 8:14 AM EST (2/13) 9:27 PM EST (2/13)
Length of Visible Light 11h 31m
Length of Day
10h 34m
Waxing Crescent, 13% of the Moon is Illuminated
Feb 13
Waxing Crescent
Feb 17
First Quarter
Feb 25
Full
Mar 4
Last Quarter
Mar 11
New

Hourly Weather History & Observations

Time (EST) Temp. Windchill Dew Point Humidity Pressure Visibility Wind Dir Wind Speed Gust Speed Precip Events Conditions
12:15 AM 33.8 °F 29.6 °F 21.2 °F 60% 29.88 in 10.0 mi WNW 4.6 mph - N/A   Overcast
12:35 AM 33.8 °F 30.8 °F 21.2 °F 60% 29.88 in 10.0 mi WNW 3.5 mph - N/A   Overcast
12:55 AM 33.8 °F 30.8 °F 19.4 °F 56% 29.89 in 10.0 mi NW 3.5 mph - N/A   Overcast
1:15 AM 33.8 °F - 19.4 °F 56% 29.89 in 10.0 mi Calm Calm - N/A   Overcast
1:35 AM 32.0 °F - 19.4 °F 60% 29.89 in 10.0 mi Calm Calm - N/A   Overcast
1:55 AM 32.0 °F 28.7 °F 21.2 °F 64% 29.90 in 10.0 mi NW 3.5 mph - N/A   Overcast
2:15 AM 32.0 °F - 19.4 °F 60% 29.91 in 10.0 mi Calm Calm - N/A   Mostly Cloudy
2:36 AM 30.2 °F 26.7 °F 19.4 °F 64% 29.92 in 10.0 mi WNW 3.5 mph - N/A   Mostly Cloudy
2:55 AM 32.0 °F - 19.4 °F 60% 29.91 in 10.0 mi Calm Calm - N/A   Overcast
3:15 AM 32.0 °F 27.5 °F 19.4 °F 60% 29.91 in 10.0 mi WNW 4.6 mph - N/A   Overcast
3:35 AM 30.2 °F - 19.4 °F 64% 29.90 in 10.0 mi Calm Calm - N/A   Mostly Cloudy
3:55 AM 30.2 °F - 19.4 °F 64% 29.90 in 10.0 mi Calm Calm - N/A   Mostly Cloudy
4:15 AM 30.2 °F - 19.4 °F 64% 29.90 in 10.0 mi Calm Calm - N/A   Mostly Cloudy
4:35 AM 26.6 °F - 17.6 °F 69% 29.89 in 10.0 mi Calm Calm - N/A   Scattered Clouds
4:55 AM 26.6 °F - 15.8 °F 64% 29.89 in 10.0 mi Calm Calm - N/A   Clear
5:15 AM 24.8 °F 20.5 °F 15.8 °F 69% 29.88 in 10.0 mi North 3.5 mph - N/A   Clear
5:35 AM 24.8 °F 19.1 °F 15.8 °F 69% 29.87 in 10.0 mi North 4.6 mph - N/A   Clear
5:45 AM 24.8 °F 16.1 °F 14.0 °F 64% 29.87 in 10.0 mi NNE 8.1 mph - N/A   Clear
7:45 AM 26.6 °F 22.6 °F 15.8 °F 64% 29.89 in 10.0 mi Variable 3.5 mph - N/A   Clear
8:45 AM 30.2 °F 26.7 °F 19.4 °F 64% 29.88 in 10.0 mi Variable 3.5 mph - N/A   Clear
9:45 AM 32.0 °F 28.7 °F 17.6 °F 55% 29.87 in 10.0 mi Variable 3.5 mph - N/A   Clear
10:45 AM 33.8 °F 30.8 °F 19.4 °F 56% 29.85 in 10.0 mi NW 3.5 mph - N/A   Clear
11:45 AM 37.4 °F - 19.4 °F 48% 29.86 in 10.0 mi Calm Calm - N/A   Clear
12:45 PM 37.4 °F 30.8 °F 19.4 °F 48% 29.83 in 10.0 mi SW 9.2 mph - N/A   Clear
1:45 PM 39.2 °F 35.9 °F 19.4 °F 45% 29.78 in 10.0 mi South 4.6 mph - N/A   Clear
2:45 PM 41.0 °F 36.4 °F 21.2 °F 45% 29.76 in 10.0 mi WSW 6.9 mph - N/A   Clear
3:45 PM 41.0 °F 39.0 °F 21.2 °F 45% 29.74 in 10.0 mi South 3.5 mph - N/A   Clear
4:45 PM 39.2 °F 35.9 °F 21.2 °F 49% 29.73 in 10.0 mi South 4.6 mph - N/A   Clear
5:45 PM 35.6 °F 30.7 °F 21.2 °F 56% 29.72 in 10.0 mi South 5.8 mph - N/A   Scattered Clouds
7:45 PM 33.8 °F - 21.2 °F 60% 29.70 in 10.0 mi Calm Calm - N/A   Overcast
8:45 PM 33.8 °F 29.6 °F 21.2 °F 60% 29.69 in 10.0 mi NE 4.6 mph - N/A   Overcast
8:55 PM 33.8 °F 30.8 °F 23.0 °F 65% 29.70 in 10.0 mi NNW 3.5 mph - N/A   Overcast
9:15 PM 33.8 °F 29.6 °F 21.2 °F 60% 29.70 in 10.0 mi NNW 4.6 mph - N/A   Overcast
9:55 PM 33.8 °F 27.0 °F 21.2 °F 60% 29.71 in 10.0 mi NNW 8.1 mph - N/A   Overcast
10:15 PM 33.8 °F 27.0 °F 21.2 °F 60% 29.70 in 10.0 mi North 8.1 mph - N/A   Overcast
10:35 PM 33.8 °F 26.4 °F 23.0 °F 65% 29.71 in 8.0 mi NNW 9.2 mph - N/A   Overcast
10:55 PM 32.0 °F 24.8 °F 26.6 °F 80% 29.70 in 3.0 mi North 8.1 mph - N/A   Overcast
11:15 PM 32.0 °F 24.8 °F 26.6 °F 80% 29.70 in 5.0 mi North 8.1 mph - N/A   Overcast
11:35 PM 32.0 °F 26.4 °F 26.6 °F 80% 29.71 in 5.0 mi North 5.8 mph - N/A   Overcast
11:55 PM 30.2 °F 24.3 °F 26.6 °F 86% 29.71 in 1.8 mi NE 5.8 mph - N/A   Overcast